Location: Bukit Nyuki
(2.5885°N, 113.7476°E)
Time: 14:40:24
(UTC+00:00)

ARIANE 5 DEB (SYLDA) - Pass Details

Date: 18 May 2021
Orbit: 917 x 35838 km, 1.6° (Epoch: 15 June)

Event Time Altitude Azimuth Distance (km) Brightness Sun altitude
Rises 12:12:40 0° 265° (W) 5,399 7.8 -25.1°
Reaches altitude 10° 12:16:52 10° 261° (W) 3,396 6.5 -26.0°
Maximum altitude 12:23:01 59° 180° (S) 1,045 2.9 -27.4°
Enters shadow 12:23:02 59° 180° (S) 1,045 2.9 -27.4°
